Location: Bruderhein
(53.8035°N, 112.9265°W)
Time: 06:43:15
(UTC+00:00)

TIGRISAT - Pass Details

Date: 03 April 2023
Orbit: 599 x 682 km, 97.7° (Epoch: 03 June)

Event Time Altitude Azimuth Distance (km) Brightness Sun altitude
Rises 10:27:32 0° 112° (ESE) 2,970 ? -20.8°
Reaches altitude 10° 10:30:26 10° 92° (E) 2,080 ? -20.5°
Maximum altitude 10:33:14 16° 54° (NE) 1,710 ? -20.2°
Drops below altitude 10° 10:36:04 10° 16° (NNE) 2,116 ? -19.8°
Sets 10:39:03 0° 356° (N) 3,047 ? -19.5°
